Location: Arcizac
(43.0933°N, 0.0112°E)
Time: 18:10:46
(UTC+00:00)

NOSS 3-1 (A) - Pass Details

Date: 14 December 2019
Orbit: 766 x 1446 km, 63.4° (Epoch: 21 January)

Event Time Altitude Azimuth Distance (km) Brightness Sun altitude
Rises 18:45:31 0° 325° (NW) 3,925 7.0 -24.7°
Reaches altitude 10° 18:48:07 10° 330° (NNW) 3,059 6.3 -25.1°
Maximum altitude 18:55:27 55° 47° (NE) 1,514 4.1 -26.5°
Enters shadow 18:56:30 52° 74° (ENE) 1,581 4.1 -26.6°
